Location: Luxembourg
(49.6117°N, 6.1300°E)
Time: 10:25:32
(UTC+02:00)

Envisat - Visible Passes

Search period start: 22 May 2018 00:00
Search period end: 01 June 2018 00:00
Orbit: 764 x 766 km, 98.2° (Epoch: 21 May)

Date Brightness Start Highest point End Pass type
(mag) Time Alt. Az. Time Alt. Az. Time Alt. Az.
22 May 5.4 21:59:00 10° SW 22:02:55 22° W 22:06:51 10° NW visible
24 May 5.7 22:26:23 10° WSW 22:28:49 13° W 22:31:17 10° WNW visible
27 May 5.6 22:14:19 10° SW 22:17:31 17° W 22:20:44 10° NW visible
